Location: Ballingbuur
(53.0000°N, 5.7667°E)
Time: 21:30:48
(UTC+00:00)

Cosmos 2297 Rocket - Pass Details

Date: 29 November 2020
Orbit: 840 x 842 km, 71.0° (Epoch: 24 January)

Event Time Altitude Azimuth Distance (km) Brightness Sun altitude
Exits shadow 04:30:02 21° 349° (NNW) 1,827 3.8 -25.3°
Drops below altitude 10° 04:33:03 10° 19° (NNE) 2,475 4.8 -24.8°
Sets 04:36:03 0° 34° (NE) 3,413 5.8 -24.4°
